Regional Weather Roundup
Issued by NWS

Home | Current Version | Previous Version | Text Only | Print | Product List | Glossary On
Versions: 1 2 3 4 5 6 7 8 9 10 11 12 13 14 15 16 17 18 19 20 21 22 23 24 25 26 27 28 29 30 31 32 33 34 35 36 37 38 39 40 41 42 43 44 45 46 47 48 49 50
000
ASUS43 KMKX 252021
RWRWI

WISCONSIN REGIONAL WEATHER ROUNDUP
NATIONAL WEATHER SERVICE MILWAUKEE/SULLIVAN WI
300 PM CDT TUE JUL 25 2017

NOTE: "FAIR" INDICATES FEW OR NO CLOUDS BELOW 12,000 FEET WITH NO
SIGNIFICANT WEATHER AND/OR OBSTRUCTIONS TO VISIBILITY.

WIZ001-002-006>008-014>016-023>028-252100-
NORTHWEST WISCONSIN

CITY           SKY/WX    TMP DP  RH WIND       PRES   REMARKS
SUPERIOR ARPT  NOT AVBL
ASHLAND        PTSUNNY   77  65  66 S9        30.00S
HAYWARD        PTSUNNY   73  63  70 S9        30.03S
SIREN          CLOUDY    76  64  66 S12       29.99F
CUMBERLAND     PTSUNNY   72  63  73 S12G17    30.02F
RICE LAKE      PTSUNNY   74  63  67 SE14      30.04F
CHETEK         CLOUDY    74  65  73 S9G21     30.05R
LADYSMITH      CLOUDY    72  63  72 SE7       30.07F
EAU CLAIRE     PTSUNNY   75  64  68 S14       30.03F
MENOMONIE      MOSUNNY   77  66  67 SE8       30.03S
NEW RICHMOND   CLOUDY    77  64  64 S13G18    29.99F
OSCEOLA        MOSUNNY   81  66  59 S15G21    30.00F HX  83
$$

WIZ003>005-009-010-017-018-252100-
NORTH CENTRAL WISCONSIN

CITY           SKY/WX    TMP DP  RH WIND       PRES   REMARKS
MANITOWISH WTR MOSUNNY   74  57  56 S15G21    30.07F
ARBOR VITAE    MOSUNNY   74  57  56 S13       30.08F
WOODRUFF       MOSUNNY   74  57  56 S13       30.08F
RHINELANDER    CLOUDY    72  54  53 S9        30.12S
EAGLE RIVER    SUNNY     74  47  38 S12       30.10S
LAND O LAKES   CLOUDY    76  43  31 S12G18    30.10F
PHILLIPS       PTSUNNY   70  61  73 S13       30.07F
TOMAHAWK         N/A     69  57  65 S3        30.12R
MEDFORD        CLOUDY    69  62  78 SE5       30.10R THUNDER
MERRILL        PTSUNNY   70  59  67 S8        30.12R
$$

WIZ029-030-035-036-043>047-252100-
CENTRAL WISCONSIN

CITY           SKY/WX    TMP DP  RH WIND       PRES   REMARKS
WAUSAU         CLOUDY    74  59  59 S16       30.09S
MOSINEE        MOSUNNY   70  61  73 S12G20    30.12S
MARSHFIELD     SUNNY     74  61  63 S17       30.09S
STEVENS POINT  MOSUNNY   72  58  62 S14       30.12R
WAUPACA        CLOUDY    78  62  58 SE9       30.11F
WAUTOMA        CLOUDY    74  64  71 S10       30.12F
WISC RAPIDS    MOSUNNY   76  60  57 S15       30.11S
CAMP DOUGLAS   PTSUNNY   73  64  73 S14       30.10S
$$

WIZ011>013-019>022-031-037>040-048>050-252100-
NORTHEAST WISCONSIN

CITY           SKY/WX    TMP DP  RH WIND       PRES   REMARKS
ANTIGO         PTSUNNY   70  58  64 S13       30.12F
SHAWANO        MOSUNNY   76  60  57 S3        30.12F
OCONTO         MOSUNNY   76  62  61 S3        30.12F
STURGEON BAY     N/A     74  62  66 S10G22    30.15F
GREEN BAY      MOSUNNY   77  65  66 S14       30.12F
MANITOWOC      MOSUNNY   72  62  71 S15       30.16F
APPLETON       PTSUNNY   75  55  50 S12G18    30.11F
CLINTONVILLE   MOSUNNY  N/A N/A N/A S13G18    30.11F
OSHKOSH        PTSUNNY   75  62  64 S8        30.12F
$$

WIZ032>034-041-042-053>061-252100-
SOUTHWEST WISCONSIN

CITY           SKY/WX    TMP DP  RH WIND       PRES   REMARKS
LA CROSSE      MOSUNNY   78  67  68 S15       30.05F HX  80
SPARTA         CLOUDY    73  64  73 S13G20    30.09F
VIROQUA        MOSUNNY   73  68  84 S13G18    30.11S
BOSCOBEL       PTSUNNY   78  66  66 S12G20    30.10F HX  80
PRAIRIE DU CHI CLOUDY    78  64  60 SE8       30.08F HX  80
PLATTEVILLE    CLOUDY    75  69  81 SE10      30.13R
$$

WIZ056-057-062-063-064-067-068-252100-
SOUTH CENTRAL WISCONSIN

CITY           SKY/WX    TMP DP  RH WIND       PRES   REMARKS
REEDSBURG      CLOUDY    71  65  80 S5        30.12R
BARABOO/DELLS  CLOUDY    73  60  63 SE7       30.13S
LONE ROCK      CLOUDY    75  67  76 S8        30.11F
MINERAL POINT  CLOUDY    77  68  73 S12G18    30.12F
MADISON        CLOUDY    75  62  64 S17       30.13F
MIDDLETON      CLOUDY    75  61  61 S13G18    30.13F
WATERTOWN      CLOUDY    76  64  65 SE10G17   30.15F
MONROE         CLOUDY    75  63  64 SE16      30.14F
JANESVILLE     PTSUNNY   79  61  53 S9        30.16F HX  80
$$

WIZ051-052-058>065-066-070>072-252100-
SOUTHEAST WISCONSIN

CITY           SKY/WX    TMP DP  RH WIND       PRES   REMARKS
MILWAUKEE      CLOUDY    76  60  57 SE16      30.19S
WAUKESHA       MOSUNNY   75  57  53 S8        30.19F
MILWAUKEE/TIMM SUNNY     79  54  41 S8        30.19F
RACINE         CLOUDY    75  61  61 S14       30.21F
KENOSHA        MOSUNNY   76  60  57 SE12      30.20S
FOND DU LAC    CLOUDY    76  59  55 S10G21    30.13F
SHEBOYGAN      CLOUDY    73  63  70 S13       30.16F
WEST BEND      MOSUNNY   75  57  53 S9        30.16F
JUNEAU         PTSUNNY   74  60  61 SE15      30.16F
$$

LSZ147-162-252100-
LAKE SUPERIOR

STATION/POSITION TIME  TEMP    WIND        PRES    WAVE
                       AIR SEA DIR/SP/G            HT/PER
                 (UTC) (F)     (DEG/KT/KT) (MB)    (FT/S)
W MID LAKE BUOY  1950   60 52  140/  6/  8 1016.5F   1
DEVILS ISLAND    2000   76     150/  7/ 12 1015.4F
PORT WING        1930   78     190/ 12/ 18 1015.2S
SAXON HARBOR     1930   78     200/  8/ 16 1015.2F
$$

LMZ867-665-643>646-252100-
LAKE MICHIGAN

STATION/POSITION TIME  TEMP    WIND        PRES    WAVE
                       AIR SEA DIR/SP/G            HT/PER
                 (UTC) (F)     (DEG/KT/KT) (MB)    (FT/S)
CHAMBERS ISLAND  1940   74     190/  7/ 12 1020.0F
S GREEN BAY BUOY 2000   74 73  220/  8/ 10 1020.0
N MID LAKE BUOY  1950   67 67  180/ 14/ 16 1022.1F   2/ 3
NORTHPORT PIER   1940   71     160/ 11/ 16 1021.0F
KEWAUNEE LAKESHO 1954   70     170/ 17/ 20 1020.4F
SHEBOYGAN LAKESH 2000   69     160/ 19/ 21 1020.9F
PORT WASHINGTON  2000   72     160/ 15/ 21 1022.0
ATWATER BUOY     1909   70 69  150/ 16/ 19 1022.3F
MILWAUKEE LAKESH 2000   70     140/ 16/ 18   N/A
S MID LAKE BUOY  1950   71 70  180/  4/  6 1023.3F   2/ 4
KENOSHA   LAKESH 2000   72     150/ 12/ 14 1022.0
$$

TC  - TEMPERATURE IN CELSIUS
VSB - VISIBILITY IN STATUTE MILES
WCI - WIND CHILL INDEX
HX  - HEAT INDEX





USA.gov is the U.S. government's official web portal to all federal, state and local government web resources and services.